This is the latest recevied weather packets stored in our database for station/object KM6YFK-13. If no packets are shown the sender has not sent any weather packets the latest 10 day(s).
| Time | Temp. | Humidity | Pressure | Rain* | Wind** | Luminosity | Snow |
|---|---|---|---|---|---|---|---|
| 1777579708 | 30.56° C | 43% | 1008.7 hPa | 0 mm | - | 196 W/m² | - |
| 1777579409 | 30.56° C | 42% | 1008.8 hPa | 0 mm | - | 221 W/m² | - |
| 1777579108 | 31.11° C | 40% | 1008.7 hPa | 0 mm | - | 293 W/m² | - |
| 1777578808 | 31.11° C | 40% | 1008.8 hPa | 0 mm | - | 796 W/m² | - |
| 1777578507 | 31.11° C | 41% | 1008.7 hPa | 0 mm | - | 261 W/m² | - |
| 1777578208 | 31.11° C | 39% | 1008.8 hPa | 0 mm | - | 492 W/m² | - |
| 1777577907 | 31.11° C | 40% | 1008.8 hPa | 0 mm | - | 831 W/m² | - |
| 1777577608 | 31.11° C | 38% | 1009 hPa | 0 mm | - | 679 W/m² | - |
| 1777577309 | 31.11° C | 39% | 1009.2 hPa | 0 mm | - | 817 W/m² | - |
| 1777577009 | 31.11° C | 42% | 1009.3 hPa | 0 mm | - | 730 W/m² | - |
| 1777576708 | 30.56° C | 41% | 1009.4 hPa | 0 mm | - | 840 W/m² | - |
| 1777576408 | 30.56° C | 42% | 1009.4 hPa | 0 mm | - | 824 W/m² | - |
| 1777576108 | 30.56° C | 43% | 1009.4 hPa | 0 mm | - | 847 W/m² | - |
| 1777575810 | 30.56° C | 43% | 1009.4 hPa | 0 mm | - | 818 W/m² | - |
| 1777575511 | 30.56° C | 42% | 1009.6 hPa | 0 mm | - | 950 W/m² | - |
| 1777575208 | 30.56° C | 45% | 1009.7 hPa | 0 mm | - | 1014 W/m² | - |
| 1777574909 | 30.56° C | 45% | 1009.7 hPa | 0 mm | - | 964 W/m² | - |
| 1777574608 | 30.56° C | 45% | 1009.9 hPa | 0 mm | - | 938 W/m² | - |
| 1777574308 | 30.56° C | 46% | 1009.9 hPa | 0 mm | - | 980 W/m² | - |
| 1777574007 | 30° C | 48% | 1009.9 hPa | 0 mm | - | 961 W/m² | - |
| 1777573708 | 30° C | 44% | 1010 hPa | 0 mm | - | 940 W/m² | - |
| 1777573408 | 30° C | 48% | 1010 hPa | 0 mm | - | 1023 W/m² | - |
| 1777573108 | 29.44° C | 50% | 1010 hPa | 0 mm | - | 1041 W/m² | - |
| 1777572810 | 29.44° C | 50% | 1010.1 hPa | 0 mm | - | 301 W/m² | - |
| 1777572508 | 29.44° C | 46% | 1010.3 hPa | 0 mm | - | 386 W/m² | - |
* Rain latest hour (hover to see other rain measurements)
** Current wind speed in m/s (hover to see current wind gust speed)